Private Wetterstation Wechselburg
Wetterdaten: Samstag, 07.08.2021
Datum Zeit Temp. +2m Bodentemp. Temp.+5cm Temp. Wind Windchill X Diff Temp. Feuchte +2m Feuchte +5cm Luftdruck Regen Wind Richtung Richtung Sonnenschein Taupunkt Windchill Windben
07.08.2021 00:00 17,9 C 18,8 C 17,2 C 17,5 C 16,8 C 0,0 C 77 % 82 % 1006,4 hPa 0,0 l/m 0,3 km/h (0 Bft) S-SO 157 0 min 13,8 C 16,8 C 0,0 km/h (0 Bft)
07.08.2021 00:05 17,8 C 18,8 C 17,1 C 17,4 C 16,7 C 0,0 C 78 % 82 % 1006,4 hPa 0,0 l/m 0,3 km/h (0 Bft) S-SW 202 0 min 13,9 C 16,7 C 0,0 km/h (0 Bft)
07.08.2021 00:10 17,9 C 18,8 C 17,0 C 17,5 C 16,6 C 0,0 C 78 % 82 % 1006,4 hPa 0,0 l/m 0,2 km/h (0 Bft) S 180 0 min 14,0 C 16,6 C 0,0 km/h (0 Bft)
07.08.2021 00:15 17,7 C 18,8 C 16,9 C 17,3 C 16,5 C 0,0 C 78 % 82 % 1006,2 hPa 0,0 l/m 0,2 km/h (0 Bft) S 180 0 min 13,8 C 16,5 C 0,0 km/h (0 Bft)
07.08.2021 00:20 17,7 C 18,9 C 16,8 C 17,2 C 16,3 C 0,0 C 78 % 82 % 1006,2 hPa 0,0 l/m 0,2 km/h (0 Bft) S-SO 157 0 min 13,8 C 16,3 C 0,0 km/h (0 Bft)
07.08.2021 00:25 17,5 C 18,9 C 16,7 C 17,1 C 16,3 C 0,0 C 78 % 83 % 1006,2 hPa 0,0 l/m 0,2 km/h (0 Bft) SO 135 0 min 13,6 C 16,3 C 0,0 km/h (0 Bft)
07.08.2021 00:30 17,5 C 18,9 C 16,7 C 17,0 C 16,1 C 0,0 C 78 % 83 % 1006,2 hPa 0,0 l/m 0,2 km/h (0 Bft) SW 225 0 min 13,6 C 16,1 C 1,6 km/h (1 Bft)
07.08.2021 00:35 17,3 C 18,9 C 16,7 C 16,9 C 16,0 C 0,0 C 78 % 83 % 1006,3 hPa 0,0 l/m 0,0 km/h (0 Bft) SO 135 0 min 13,4 C 16,0 C 0,0 km/h (0 Bft)
07.08.2021 00:40 17,2 C 18,9 C 16,5 C 16,7 C 15,8 C 0,0 C 78 % 83 % 1006,3 hPa 0,0 l/m 0,0 km/h (0 Bft) S-SO 157 0 min 13,3 C 15,8 C 0,0 km/h (0 Bft)
07.08.2021 00:45 17,1 C 18,9 C 16,1 C 16,6 C 15,5 C 0,0 C 79 % 83 % 1006,3 hPa 0,0 l/m 0,0 km/h (0 Bft) S-SO 157 0 min 13,4 C 15,5 C 0,0 km/h (0 Bft)
07.08.2021 00:50 16,9 C 18,9 C 15,9 C 16,4 C 15,3 C 0,0 C 79 % 84 % 1006,3 hPa 0,0 l/m 0,0 km/h (0 Bft) W-SW 247 0 min 13,2 C 15,3 C 0,0 km/h (0 Bft)
07.08.2021 00:55 16,8 C 18,9 C 15,7 C 16,2 C 15,0 C 0,0 C 79 % 85 % 1006,1 hPa 0,0 l/m 0,0 km/h (0 Bft) NO 45 0 min 13,1 C 15,0 C 0,0 km/h (0 Bft)
07.08.2021 01:00 16,6 C 18,9 C 15,7 C 16,1 C 15,0 C 0,0 C 79 % 85 % 1006,1 hPa 0,0 l/m 0,0 km/h (0 Bft) S-SW 202 0 min 12,9 C 15,0 C 0,0 km/h (0 Bft)
07.08.2021 01:05 16,5 C 18,9 C 15,7 C 16,0 C 15,0 C 0,0 C 80 % 85 % 1006,1 hPa 0,0 l/m 0,0 km/h (0 Bft) S-SO 157 0 min 13,0 C 15,0 C 0,0 km/h (0 Bft)
07.08.2021 01:10 16,5 C 18,9 C 15,8 C 16,0 C 15,0 C 0,0 C 80 % 86 % 1006,1 hPa 0,0 l/m 0,0 km/h (0 Bft) SW 225 0 min 13,0 C 15,0 C 0,0 km/h (0 Bft)
07.08.2021 01:15 16,5 C 18,8 C 15,8 C 16,0 C 15,0 C 0,0 C 80 % 86 % 1006,3 hPa 0,0 l/m 0,2 km/h (0 Bft) S-SO 157 0 min 13,0 C 15,0 C 0,0 km/h (0 Bft)
07.08.2021 01:20 16,3 C 18,8 C 15,8 C 15,9 C 15,0 C 0,0 C 81 % 86 % 1006,3 hPa 0,0 l/m 0,2 km/h (0 Bft) S 180 0 min 13,0 C 15,0 C 0,0 km/h (0 Bft)
07.08.2021 01:25 16,3 C 18,8 C 15,7 C 15,9 C 15,0 C 0,0 C 81 % 86 % 1006,3 hPa 0,0 l/m 0,0 km/h (0 Bft) S 180 0 min 13,0 C 15,0 C 0,0 km/h (0 Bft)
07.08.2021 01:30 16,3 C 18,8 C 15,7 C 15,9 C 15,0 C 0,0 C 81 % 86 % 1006,3 hPa 0,0 l/m 0,0 km/h (0 Bft) S 180 0 min 13,0 C 15,0 C 0,0 km/h (0 Bft)
07.08.2021 01:35 16,1 C 18,8 C 15,5 C 15,7 C 14,9 C 0,0 C 81 % 86 % 1006,2 hPa 0,0 l/m 0,0 km/h (0 Bft) W-SW 247 0 min 12,8 C 14,9 C 0,0 km/h (0 Bft)
07.08.2021 01:40 16,1 C 18,8 C 15,4 C 15,7 C 14,8 C 0,0 C 81 % 86 % 1006,2 hPa 0,0 l/m 0,0 km/h (0 Bft) S-SO 157 0 min 12,8 C 14,8 C 0,0 km/h (0 Bft)
07.08.2021 01:45 16,0 C 18,8 C 15,4 C 15,6 C 14,8 C 0,0 C 81 % 86 % 1006,2 hPa 0,0 l/m 0,0 km/h (0 Bft) SW 225 0 min 12,7 C 14,8 C 0,0 km/h (0 Bft)
07.08.2021 01:50 16,0 C 18,8 C 15,3 C 15,6 C 14,8 C 0,0 C 81 % 86 % 1006,2 hPa 0,0 l/m 0,0 km/h (0 Bft) NO 45 0 min 12,7 C 14,8 C 0,0 km/h (0 Bft)
07.08.2021 01:55 15,9 C 18,8 C 15,3 C 15,5 C 14,8 C 0,0 C 82 % 87 % 1005,8 hPa 0,0 l/m 0,0 km/h (0 Bft) S-SO 157 0 min 12,8 C 14,8 C 0,0 km/h (0 Bft)
07.08.2021 02:00 15,9 C 18,8 C 15,3 C 15,5 C 14,7 C 0,0 C 82 % 87 % 1005,8 hPa 0,0 l/m 0,0 km/h (0 Bft) S 180 0 min 12,8 C 14,7 C 0,0 km/h (0 Bft)
07.08.2021 02:05 15,9 C 18,8 C 15,3 C 15,5 C 14,7 C 0,0 C 82 % 87 % 1005,8 hPa 0,0 l/m 0,0 km/h (0 Bft) S-SO 157 0 min 12,8 C 14,7 C 0,0 km/h (0 Bft)
07.08.2021 02:10 15,8 C 18,8 C 15,3 C 15,4 C 14,7 C 0,0 C 82 % 87 % 1005,8 hPa 0,0 l/m 0,0 km/h (0 Bft) SW 225 0 min 12,7 C 14,7 C 0,0 km/h (0 Bft)
07.08.2021 02:15 15,7 C 18,8 C 15,1 C 15,3 C 14,5 C 0,0 C 82 % 87 % 1006,4 hPa 0,0 l/m 0,0 km/h (0 Bft) O-NO 67 0 min 12,6 C 14,5 C 0,0 km/h (0 Bft)
07.08.2021 02:20 15,6 C 18,8 C 15,0 C 15,2 C 14,4 C 0,0 C 82 % 87 % 1006,4 hPa 0,0 l/m 0,0 km/h (0 Bft) O 90 0 min 12,5 C 14,4 C 0,0 km/h (0 Bft)
07.08.2021 02:25 15,6 C 18,9 C 14,9 C 15,2 C 14,3 C 0,0 C 83 % 87 % 1006,4 hPa 0,0 l/m 0,0 km/h (0 Bft) SO 135 0 min 12,7 C 14,3 C 0,0 km/h (0 Bft)
07.08.2021 02:30 15,5 C 18,8 C 14,7 C 15,0 C 14,1 C 0,0 C 82 % 87 % 1006,4 hPa 0,0 l/m 0,0 km/h (0 Bft) NO 45 0 min 12,4 C 14,1 C 0,0 km/h (0 Bft)
07.08.2021 02:35 15,3 C 18,8 C 14,7 C 14,9 C 14,0 C 0,0 C 82 % 87 % 1006,5 hPa 0,0 l/m 0,0 km/h (0 Bft) O-NO 67 0 min 12,2 C 14,0 C 0,0 km/h (0 Bft)
07.08.2021 02:40 15,3 C 18,8 C 14,7 C 14,8 C 13,9 C 0,0 C 83 % 87 % 1006,5 hPa 0,0 l/m 0,0 km/h (0 Bft) W-SW 247 0 min 12,4 C 13,9 C 0,0 km/h (0 Bft)
07.08.2021 02:45 15,2 C 18,8 C 14,6 C 14,8 C 13,9 C 0,0 C 83 % 88 % 1006,5 hPa 0,0 l/m 0,0 km/h (0 Bft) O-SO 112 0 min 12,3 C 13,9 C 0,0 km/h (0 Bft)
07.08.2021 02:50 15,2 C 18,8 C 14,5 C 14,7 C 13,8 C 0,0 C 83 % 88 % 1006,5 hPa 0,0 l/m 0,0 km/h (0 Bft) O-NO 67 0 min 12,3 C 13,8 C 0,0 km/h (0 Bft)
07.08.2021 02:55 15,1 C 18,9 C 14,4 C 14,6 C 13,7 C 0,0 C 84 % 88 % 1006,4 hPa 0,0 l/m 0,0 km/h (0 Bft) O-NO 67 0 min 12,4 C 13,7 C 0,0 km/h (0 Bft)
07.08.2021 03:00 15,0 C 18,9 C 14,3 C 14,6 C 13,7 C 0,0 C 84 % 88 % 1006,4 hPa 0,0 l/m 0,0 km/h (0 Bft) O-NO 67 0 min 12,3 C 13,7 C 0,0 km/h (0 Bft)
07.08.2021 03:05 15,0 C 18,9 C 14,3 C 14,5 C 13,6 C 0,0 C 84 % 88 % 1006,4 hPa 0,0 l/m 0,0 km/h (0 Bft) O-NO 67 0 min 12,3 C 13,6 C 0,0 km/h (0 Bft)
07.08.2021 03:10 14,9 C 18,9 C 14,3 C 14,4 C 13,5 C 0,0 C 84 % 89 % 1006,4 hPa 0,0 l/m 0,0 km/h (0 Bft) O-NO 67 0 min 12,2 C 13,5 C 0,0 km/h (0 Bft)
07.08.2021 03:15 14,8 C 18,9 C 14,2 C 14,4 C 13,5 C 0,0 C 84 % 89 % 1005,9 hPa 0,0 l/m 0,0 km/h (0 Bft) O-NO 67 0 min 12,1 C 13,5 C 0,0 km/h (0 Bft)
07.08.2021 03:20 14,8 C 18,9 C 14,1 C 14,4 C 13,5 C 0,0 C 84 % 89 % 1005,9 hPa 0,0 l/m 0,0 km/h (0 Bft) O-NO 67 0 min 12,1 C 13,5 C 0,0 km/h (0 Bft)
07.08.2021 03:25 14,7 C 18,9 C 14,1 C 14,3 C 13,4 C 0,0 C 85 % 89 % 1005,9 hPa 0,0 l/m 0,0 km/h (0 Bft) SO 135 0 min 12,2 C 13,4 C 0,0 km/h (0 Bft)
07.08.2021 03:30 14,6 C 18,9 C 14,0 C 14,2 C 13,4 C 0,0 C 85 % 89 % 1005,9 hPa 0,0 l/m 0,0 km/h (0 Bft) SO 135 0 min 12,1 C 13,4 C 0,0 km/h (0 Bft)
07.08.2021 03:35 14,7 C 18,9 C 14,0 C 14,2 C 13,3 C 0,0 C 85 % 89 % 1006,4 hPa 0,0 l/m 0,0 km/h (0 Bft) S-SW 202 0 min 12,2 C 13,3 C 0,0 km/h (0 Bft)
07.08.2021 03:40 14,6 C 18,9 C 14,0 C 14,2 C 13,3 C 0,0 C 85 % 89 % 1006,4 hPa 0,0 l/m 0,0 km/h (0 Bft) S-SW 202 0 min 12,1 C 13,3 C 0,0 km/h (0 Bft)
07.08.2021 03:45 14,5 C 18,9 C 14,0 C 14,1 C 13,2 C 0,0 C 85 % 89 % 1006,4 hPa 0,0 l/m 0,0 km/h (0 Bft) NW 315 0 min 12,0 C 13,2 C 0,0 km/h (0 Bft)
07.08.2021 03:50 14,4 C 18,9 C 13,9 C 14,0 C 13,2 C 0,0 C 85 % 89 % 1006,4 hPa 0,0 l/m 0,0 km/h (0 Bft) NW 315 0 min 11,9 C 13,2 C 0,0 km/h (0 Bft)
07.08.2021 03:55 14,5 C 18,9 C 13,9 C 14,1 C 13,2 C 0,0 C 86 % 89 % 1006,1 hPa 0,0 l/m 0,0 km/h (0 Bft) SO 135 0 min 12,2 C 13,2 C 0,0 km/h (0 Bft)
07.08.2021 04:00 14,4 C 18,9 C 13,9 C 14,0 C 13,2 C 0,0 C 86 % 90 % 1006,1 hPa 0,0 l/m 0,0 km/h (0 Bft) SO 135 0 min 12,1 C 13,2 C 0,0 km/h (0 Bft)
07.08.2021 04:05 14,3 C 18,9 C 13,9 C 13,9 C 13,1 C 0,0 C 86 % 90 % 1006,1 hPa 0,0 l/m 0,0 km/h (0 Bft) SO 135 0 min 12,0 C 13,1 C 0,0 km/h (0 Bft)
07.08.2021 04:10 14,3 C 18,9 C 13,9 C 13,9 C 13,1 C 0,0 C 86 % 90 % 1006,1 hPa 0,0 l/m 0,0 km/h (0 Bft) SO 135 0 min 12,0 C 13,1 C 0,0 km/h (0 Bft)
07.08.2021 04:15 14,3 C 18,9 C 13,9 C 13,9 C 13,1 C 0,0 C 86 % 90 % 1006,3 hPa 0,0 l/m 0,0 km/h (0 Bft) SO 135 0 min 12,0 C 13,1 C 0,0 km/h (0 Bft)
07.08.2021 04:20 14,3 C 18,8 C 13,8 C 13,9 C 13,1 C 0,0 C 86 % 90 % 1006,3 hPa 0,0 l/m 0,0 km/h (0 Bft) NW 315 0 min 12,0 C 13,1 C 0,0 km/h (0 Bft)
07.08.2021 04:25 14,2 C 18,8 C 13,9 C 13,8 C 13,1 C 0,0 C 86 % 90 % 1006,3 hPa 0,0 l/m 0,0 km/h (0 Bft) S 180 0 min 11,9 C 13,1 C 0,0 km/h (0 Bft)
07.08.2021 04:30 14,1 C 18,8 C 13,9 C 13,8 C 13,1 C 0,0 C 86 % 90 % 1006,3 hPa 0,0 l/m 0,0 km/h (0 Bft) S-SO 157 0 min 11,8 C 13,1 C 0,0 km/h (0 Bft)
07.08.2021 04:35 14,1 C 18,7 C 13,9 C 13,8 C 13,1 C 0,0 C 86 % 90 % 1006,2 hPa 0,0 l/m 0,0 km/h (0 Bft) S 180 0 min 11,8 C 13,1 C 0,0 km/h (0 Bft)
07.08.2021 04:40 14,0 C 18,7 C 13,9 C 13,7 C 13,1 C 0,0 C 86 % 90 % 1006,2 hPa 0,0 l/m 0,0 km/h (0 Bft) S-SO 157 0 min 11,7 C 13,1 C 0,0 km/h (0 Bft)
07.08.2021 04:45 14,1 C 18,7 C 13,9 C 13,8 C 13,1 C 0,0 C 86 % 90 % 1006,2 hPa 0,0 l/m 0,0 km/h (0 Bft) S-SO 157 0 min 11,8 C 13,1 C 0,0 km/h (0 Bft)
07.08.2021 04:50 14,0 C 18,7 C 13,8 C 13,7 C 13,1 C 0,0 C 86 % 90 % 1006,2 hPa 0,0 l/m 0,0 km/h (0 Bft) SW 225 0 min 11,7 C 13,1 C 0,0 km/h (0 Bft)
07.08.2021 04:55 14,0 C 18,7 C 13,8 C 13,7 C 13,2 C 0,0 C 86 % 90 % 1006,1 hPa 0,0 l/m 0,0 km/h (0 Bft) S 180 0 min 11,7 C 13,2 C 0,0 km/h (0 Bft)
07.08.2021 05:00 14,0 C 18,7 C 13,8 C 13,7 C 13,2 C 0,0 C 86 % 90 % 1006,1 hPa 0,0 l/m 0,0 km/h (0 Bft) SW 225 0 min 11,7 C 13,2 C 0,0 km/h (0 Bft)
07.08.2021 05:05 13,9 C 18,7 C 13,7 C 13,6 C 13,1 C 0,0 C 86 % 90 % 1006,1 hPa 0,0 l/m 0,0 km/h (0 Bft) S 180 0 min 11,6 C 13,1 C 0,0 km/h (0 Bft)
07.08.2021 05:10 13,9 C 18,7 C 13,7 C 13,6 C 13,0 C 0,0 C 86 % 90 % 1006,1 hPa 0,0 l/m 0,0 km/h (0 Bft) S 180 0 min 11,6 C 13,0 C 0,0 km/h (0 Bft)
07.08.2021 05:15 13,9 C 18,7 C 13,7 C 13,5 C 12,8 C 0,0 C 86 % 90 % 1006,3 hPa 0,0 l/m 0,0 km/h (0 Bft) S 180 0 min 11,6 C 12,8 C 0,0 km/h (0 Bft)
07.08.2021 05:20 13,8 C 18,7 C 13,7 C 13,4 C 12,7 C 0,0 C 86 % 90 % 1006,3 hPa 0,0 l/m 0,0 km/h (0 Bft) S 180 0 min 11,5 C 12,7 C 0,0 km/h (0 Bft)
07.08.2021 05:25 13,7 C 18,7 C 13,6 C 13,4 C 12,7 C 0,0 C 86 % 90 % 1006,3 hPa 0,0 l/m 0,0 km/h (0 Bft) S 180 0 min 11,4 C 12,7 C 0,0 km/h (0 Bft)
07.08.2021 05:30 13,7 C 18,7 C 13,5 C 13,4 C 12,7 C 0,0 C 87 % 90 % 1006,3 hPa 0,0 l/m 0,0 km/h (0 Bft) S-SW 202 0 min 11,6 C 12,7 C 0,0 km/h (0 Bft)
07.08.2021 05:35 13,7 C 18,7 C 13,6 C 13,4 C 12,7 C 0,0 C 87 % 91 % 1006,3 hPa 0,0 l/m 0,0 km/h (0 Bft) S-SW 202 0 min 11,6 C 12,7 C 0,0 km/h (0 Bft)
07.08.2021 05:40 13,6 C 18,7 C 13,5 C 13,3 C 12,7 C 0,0 C 87 % 91 % 1006,3 hPa 0,0 l/m 0,0 km/h (0 Bft) S 180 0 min 11,5 C 12,7 C 0,0 km/h (0 Bft)
07.08.2021 05:45 13,6 C 18,7 C 13,5 C 13,3 C 12,7 C 0,0 C 87 % 91 % 1006,3 hPa 0,0 l/m 0,0 km/h (0 Bft) S 180 0 min 11,5 C 12,7 C 0,0 km/h (0 Bft)
07.08.2021 05:50 13,7 C 18,6 C 13,5 C 13,4 C 12,7 C 0,0 C 87 % 91 % 1006,3 hPa 0,0 l/m 0,0 km/h (0 Bft) SW 225 0 min 11,6 C 12,7 C 0,0 km/h (0 Bft)
07.08.2021 05:55 13,6 C 18,6 C 13,5 C 13,3 C 12,7 C 0,0 C 87 % 91 % 1005,9 hPa 0,0 l/m 0,0 km/h (0 Bft) S 180 0 min 11,5 C 12,7 C 0,0 km/h (0 Bft)
07.08.2021 06:00 13,5 C 18,6 C 13,5 C 13,2 C 12,7 C 0,0 C 87 % 91 % 1005,9 hPa 0,0 l/m 0,0 km/h (0 Bft) S 180 0 min 11,4 C 12,7 C 0,0 km/h (0 Bft)
07.08.2021 06:05 13,5 C 18,6 C 13,5 C 13,3 C 12,8 C 0,0 C 87 % 91 % 1005,9 hPa 0,0 l/m 0,0 km/h (0 Bft) S-SO 157 0 min 11,4 C 12,8 C 0,0 km/h (0 Bft)
07.08.2021 06:10 13,4 C 18,6 C 13,5 C 13,2 C 12,9 C 0,0 C 87 % 91 % 1005,9 hPa 0,0 l/m 0,0 km/h (0 Bft) O-SO 112 0 min 11,3 C 12,9 C 0,0 km/h (0 Bft)
07.08.2021 06:15 13,4 C 18,5 C 13,5 C 13,2 C 12,9 C 0,0 C 87 % 91 % 1006,4 hPa 0,0 l/m 0,0 km/h (0 Bft) S-SO 157 0 min 11,3 C 12,9 C 0,0 km/h (0 Bft)
07.08.2021 06:20 13,4 C 18,5 C 13,6 C 13,3 C 13,1 C 0,0 C 87 % 91 % 1006,4 hPa 0,0 l/m 0,0 km/h (0 Bft) S-SO 157 0 min 11,3 C 13,1 C 0,0 km/h (0 Bft)
07.08.2021 06:25 13,5 C 18,5 C 13,7 C 13,4 C 13,3 C 0,0 C 87 % 91 % 1006,4 hPa 0,0 l/m 0,0 km/h (0 Bft) SO 135 0 min 11,4 C 13,3 C 0,0 km/h (0 Bft)
07.08.2021 06:30 13,5 C 18,5 C 13,7 C 13,5 C 13,4 C 0,0 C 87 % 91 % 1006,4 hPa 0,0 l/m 0,0 km/h (0 Bft) S-SO 157 0 min 11,4 C 13,4 C 0,0 km/h (0 Bft)
07.08.2021 06:35 13,5 C 18,5 C 13,9 C 13,7 C 13,7 C 0,2 C 87 % 91 % 1006,2 hPa 0,0 l/m 0,0 km/h (0 Bft) S 180 0 min 11,4 C 13,7 C 0,0 km/h (0 Bft)
07.08.2021 06:40 13,5 C 18,4 C 14,0 C 13,8 C 13,8 C 0,3 C 87 % 91 % 1006,2 hPa 0,0 l/m 0,0 km/h (0 Bft) SW 225 0 min 11,4 C 13,8 C 0,0 km/h (0 Bft)
07.08.2021 06:45 13,6 C 18,4 C 14,2 C 14,1 C 14,1 C 0,5 C 87 % 91 % 1006,2 hPa 0,0 l/m 0,0 km/h (0 Bft) S 180 0 min 11,5 C 14,1 C 0,0 km/h (0 Bft)
07.08.2021 06:50 13,7 C 18,3 C 14,3 C 14,3 C 14,3 C 0,6 C 87 % 91 % 1006,2 hPa 0,0 l/m 0,0 km/h (0 Bft) S-SO 157 0 min 11,6 C 14,3 C 0,0 km/h (0 Bft)
07.08.2021 06:55 13,7 C 18,3 C 14,5 C 14,5 C 14,5 C 0,8 C 87 % 91 % 1006,3 hPa 0,0 l/m 0,0 km/h (0 Bft) W-SW 247 0 min 11,6 C 14,5 C 0,0 km/h (0 Bft)
07.08.2021 07:00 13,7 C 18,3 C 14,7 C 14,7 C 14,7 C 1,0 C 87 % 90 % 1006,3 hPa 0,0 l/m 0,0 km/h (0 Bft) S-SO 157 0 min 11,6 C 14,7 C 0,0 km/h (0 Bft)
07.08.2021 07:05 13,8 C 18,3 C 14,9 C 14,8 C 14,8 C 1,0 C 87 % 90 % 1006,3 hPa 0,0 l/m 0,0 km/h (0 Bft) SW 225 0 min 11,7 C 14,8 C 0,0 km/h (0 Bft)
07.08.2021 07:10 13,8 C 18,3 C 14,9 C 14,8 C 14,8 C 1,0 C 87 % 90 % 1006,3 hPa 0,0 l/m 0,0 km/h (0 Bft) SW 225 0 min 11,7 C 14,8 C 0,0 km/h (0 Bft)
07.08.2021 07:15 14,1 C 18,2 C 15,7 C 19,8 C 19,8 C 5,7 C 87 % 89 % 1006,1 hPa 0,0 l/m 0,0 km/h (0 Bft) SO 135 5 min 12,0 C 19,8 C 0,0 km/h (0 Bft)
07.08.2021 07:20 14,2 C 18,2 C 15,9 C 21,3 C 21,3 C 7,1 C 87 % 89 % 1006,1 hPa 0,0 l/m 0,0 km/h (0 Bft) S-SO 157 5 min 12,1 C 21,3 C 0,0 km/h (0 Bft)
07.08.2021 07:25 14,7 C 18,2 C 16,0 C 22,7 C 22,7 C 8,0 C 87 % 88 % 1006,1 hPa 0,0 l/m 0,0 km/h (0 Bft) S 180 5 min 12,6 C 22,7 C 0,0 km/h (0 Bft)
07.08.2021 07:30 15,1 C 18,2 C 16,1 C 22,7 C 22,7 C 7,6 C 87 % 88 % 1006,1 hPa 0,0 l/m 0,0 km/h (0 Bft) N 360 5 min 13,0 C 22,7 C 0,0 km/h (0 Bft)
07.08.2021 07:35 15,5 C 18,2 C 16,2 C 22,3 C 22,3 C 6,8 C 87 % 88 % 1006,3 hPa 0,0 l/m 0,0 km/h (0 Bft) SO 135 5 min 13,3 C 22,3 C 0,0 km/h (0 Bft)
07.08.2021 07:40 15,8 C 18,2 C 16,1 C 21,8 C 21,8 C 6,0 C 87 % 87 % 1006,3 hPa 0,0 l/m 0,0 km/h (0 Bft) SW 225 5 min 13,6 C 21,8 C 0,0 km/h (0 Bft)
07.08.2021 07:45 16,4 C 18,2 C 16,1 C 20,8 C 20,8 C 4,4 C 87 % 87 % 1006,3 hPa 0,0 l/m 0,0 km/h (0 Bft) S 180 5 min 14,2 C 20,8 C 0,0 km/h (0 Bft)
07.08.2021 07:50 16,7 C 18,2 C 16,1 C 20,2 C 20,2 C 3,5 C 86 % 87 % 1006,3 hPa 0,0 l/m 0,2 km/h (0 Bft) SW 225 5 min 14,3 C 20,2 C 2,7 km/h (1 Bft)
07.08.2021 07:55 16,9 C 18,2 C 16,3 C 20,4 C 20,4 C 3,5 C 86 % 87 % 1006,6 hPa 0,0 l/m 0,2 km/h (0 Bft) S 180 5 min 14,5 C 20,4 C 0,0 km/h (0 Bft)
07.08.2021 08:00 17,1 C 18,2 C 16,3 C 20,8 C 20,8 C 3,7 C 86 % 87 % 1006,6 hPa 0,0 l/m 0,2 km/h (0 Bft) W-SW 247 5 min 14,7 C 20,8 C 0,0 km/h (0 Bft)
07.08.2021 08:05 17,5 C 18,2 C 16,5 C 21,9 C 21,9 C 4,4 C 85 % 86 % 1006,6 hPa 0,0 l/m 0,0 km/h (0 Bft) SW 225 5 min 14,9 C 21,9 C 0,0 km/h (0 Bft)
07.08.2021 08:10 17,7 C 18,2 C 16,5 C 21,8 C 21,8 C 4,1 C 84 % 86 % 1006,6 hPa 0,0 l/m 0,2 km/h (0 Bft) W 270 5 min 15,0 C 21,8 C 2,3 km/h (1 Bft)
07.08.2021 08:15 17,9 C 18,2 C 16,7 C 22,0 C 22,0 C 4,1 C 83 % 86 % 1006,8 hPa 0,0 l/m 0,2 km/h (0 Bft) N 360 5 min 15,0 C 22,0 C 0,0 km/h (0 Bft)
07.08.2021 08:20 17,9 C 18,2 C 16,7 C 22,0 C 22,0 C 4,1 C 83 % 86 % 1006,8 hPa 0,0 l/m 0,2 km/h (0 Bft) SO 135 5 min 15,0 C 22,0 C 0,0 km/h (0 Bft)
07.08.2021 08:25 18,1 C 18,2 C 16,7 C 21,8 C 21,8 C 3,7 C 81 % 86 % 1006,8 hPa 0,0 l/m 0,2 km/h (0 Bft) S-SO 157 5 min 14,8 C 21,8 C 0,0 km/h (0 Bft)
07.08.2021 08:30 18,2 C 18,2 C 16,8 C 22,7 C 22,7 C 4,5 C 82 % 86 % 1006,8 hPa 0,0 l/m 0,2 km/h (0 Bft) S 180 5 min 15,1 C 22,7 C 0,0 km/h (0 Bft)
07.08.2021 08:35 18,7 C 18,2 C 16,9 C 23,6 C 23,6 C 4,9 C 80 % 85 % 1006,8 hPa 0,0 l/m 0,2 km/h (0 Bft) W-SW 247 5 min 15,2 C 23,6 C 0,0 km/h (0 Bft)
07.08.2021 08:40 18,9 C 18,2 C 17,0 C 24,3 C 24,3 C 5,4 C 80 % 85 % 1006,8 hPa 0,0 l/m 0,2 km/h (0 Bft) S-SO 157 5 min 15,4 C 24,3 C 0,0 km/h (0 Bft)
07.08.2021 08:45 19,1 C 18,2 C 17,2 C 24,9 C 24,9 C 5,8 C 79 % 85 % 1006,8 hPa 0,0 l/m 0,0 km/h (0 Bft) SW 225 5 min 15,4 C 24,9 C 0,0 km/h (0 Bft)
07.08.2021 08:50 19,2 C 18,1 C 17,3 C 25,2 C 25,2 C 6,0 C 78 % 85 % 1006,8 hPa 0,0 l/m 0,2 km/h (0 Bft) SW 225 5 min 15,3 C 25,2 C 2,3 km/h (1 Bft)
07.08.2021 08:55 19,3 C 18,0 C 17,4 C 25,0 C 25,0 C 5,7 C 76 % 84 % 1006,9 hPa 0,0 l/m 0,8 km/h (0 Bft) W-SW 247 5 min 15,0 C 25,0 C 2,4 km/h (1 Bft)
07.08.2021 09:00 19,5 C 18,1 C 17,5 C 25,0 C 25,0 C 5,5 C 76 % 84 % 1006,9 hPa 0,0 l/m 1,0 km/h (0 Bft) SW 225 5 min 15,2 C 25,0 C 5,3 km/h (1 Bft)
07.08.2021 09:05 19,6 C 18,1 C 17,6 C 25,0 C 25,0 C 5,4 C 76 % 84 % 1006,9 hPa 0,0 l/m 0,6 km/h (0 Bft) S-SO 157 5 min 15,2 C 25,0 C 3,4 km/h (1 Bft)
07.08.2021 09:10 19,6 C 18,1 C 17,7 C 24,8 C 24,8 C 5,2 C 76 % 83 % 1006,9 hPa 0,0 l/m 1,0 km/h (0 Bft) W-SW 247 5 min 15,2 C 24,8 C 0,0 km/h (0 Bft)
07.08.2021 09:15 19,8 C 18,1 C 17,8 C 23,5 C 23,5 C 3,7 C 75 % 83 % 1006,8 hPa 0,0 l/m 0,6 km/h (0 Bft) W-SW 247 5 min 15,2 C 23,5 C 0,0 km/h (0 Bft)
07.08.2021 09:20 20,0 C 18,1 C 17,8 C 23,0 C 23,0 C 3,0 C 75 % 83 % 1006,8 hPa 0,0 l/m 0,3 km/h (0 Bft) S 180 0 min 15,4 C 23,0 C 0,0 km/h (0 Bft)
07.08.2021 09:25 20,1 C 18,1 C 17,9 C 22,3 C 22,3 C 2,2 C 74 % 83 % 1006,8 hPa 0,0 l/m 0,6 km/h (0 Bft) SO 135 0 min 15,3 C 22,3 C 0,0 km/h (0 Bft)
07.08.2021 09:30 20,1 C 18,1 C 17,9 C 22,4 C 22,4 C 2,3 C 74 % 83 % 1006,8 hPa 0,0 l/m 1,1 km/h (1 Bft) S 180 0 min 15,3 C 22,4 C 2,4 km/h (1 Bft)
07.08.2021 09:35 20,1 C 18,1 C 18,1 C 22,4 C 22,4 C 2,3 C 73 % 82 % 1006,6 hPa 0,0 l/m 1,0 km/h (0 Bft) W-NW 292 0 min 15,1 C 22,4 C 2,7 km/h (1 Bft)
07.08.2021 09:40 20,0 C 18,1 C 18,2 C 22,2 C 22,2 C 2,2 C 73 % 82 % 1006,6 hPa 0,0 l/m 0,6 km/h (0 Bft) N-NO 22 0 min 15,0 C 22,2 C 6,0 km/h (2 Bft)
07.08.2021 09:45 20,0 C 18,1 C 18,4 C 22,3 C 22,3 C 2,3 C 73 % 81 % 1006,6 hPa 0,0 l/m 0,5 km/h (0 Bft) W 270 0 min 15,0 C 22,3 C 0,0 km/h (0 Bft)
07.08.2021 09:50 20,1 C 18,1 C 18,5 C 22,3 C 22,3 C 2,2 C 73 % 81 % 1006,6 hPa 0,0 l/m 0,6 km/h (0 Bft) S-SO 157 0 min 15,1 C 22,3 C 2,9 km/h (1 Bft)
07.08.2021 09:55 20,3 C 18,1 C 18,5 C 22,3 C 22,3 C 2,0 C 73 % 80 % 1006,6 hPa 0,0 l/m 1,3 km/h (1 Bft) SO 135 0 min 15,3 C 22,3 C 2,4 km/h (1 Bft)
07.08.2021 10:00 20,3 C 18,1 C 18,7 C 22,5 C 22,5 C 2,2 C 72 % 80 % 1006,6 hPa 0,0 l/m 1,3 km/h (1 Bft) O-SO 112 0 min 15,1 C 22,5 C 3,1 km/h (1 Bft)
07.08.2021 10:05 20,4 C 18,1 C 18,8 C 22,9 C 22,9 C 2,5 C 71 % 79 % 1006,6 hPa 0,0 l/m 1,4 km/h (1 Bft) O-NO 67 0 min 15,0 C 22,9 C 0,0 km/h (0 Bft)
07.08.2021 10:10 20,4 C 18,1 C 18,9 C 23,1 C 23,1 C 2,7 C 71 % 79 % 1006,6 hPa 0,0 l/m 1,3 km/h (1 Bft) S-SO 157 0 min 15,0 C 23,1 C 4,0 km/h (1 Bft)
07.08.2021 10:15 20,5 C 18,1 C 19,0 C 23,1 C 23,1 C 2,6 C 70 % 78 % 1007,1 hPa 0,0 l/m 1,3 km/h (1 Bft) W-SW 247 0 min 14,8 C 23,1 C 4,8 km/h (1 Bft)
07.08.2021 10:20 20,5 C 18,1 C 19,0 C 23,0 C 23,0 C 2,5 C 70 % 77 % 1007,1 hPa 0,0 l/m 1,3 km/h (1 Bft) NW 315 0 min 14,8 C 23,0 C 0,0 km/h (0 Bft)
07.08.2021 10:25 20,5 C 18,1 C 19,1 C 22,8 C 22,8 C 2,3 C 70 % 77 % 1007,1 hPa 0,0 l/m 2,3 km/h (1 Bft) W-SW 247 0 min 14,8 C 22,8 C 2,3 km/h (1 Bft)
07.08.2021 10:30 20,4 C 18,1 C 19,1 C 23,1 C 23,1 C 2,7 C 70 % 77 % 1007,1 hPa 0,0 l/m 1,8 km/h (1 Bft) W 270 0 min 14,7 C 23,1 C 0,0 km/h (0 Bft)
07.08.2021 10:35 20,5 C 18,1 C 19,1 C 23,3 C 23,3 C 2,8 C 70 % 77 % 1007,1 hPa 0,0 l/m 1,4 km/h (1 Bft) W-SW 247 0 min 14,8 C 23,3 C 2,1 km/h (1 Bft)
07.08.2021 10:40 20,6 C 18,1 C 19,2 C 23,2 C 23,2 C 2,6 C 70 % 78 % 1007,1 hPa 0,0 l/m 1,3 km/h (1 Bft) S-SO 157 0 min 14,9 C 23,2 C 2,9 km/h (1 Bft)
07.08.2021 10:45 20,8 C 18,1 C 19,3 C 23,4 C 23,4 C 2,6 C 70 % 78 % 1007,1 hPa 0,0 l/m 0,6 km/h (0 Bft) S-SO 157 0 min 15,1 C 23,4 C 0,0 km/h (0 Bft)
07.08.2021 10:50 20,9 C 18,1 C 19,4 C 23,7 C 23,7 C 2,8 C 71 % 78 % 1007,1 hPa 0,0 l/m 0,2 km/h (0 Bft) S 180 0 min 15,4 C 23,7 C 0,0 km/h (0 Bft)
07.08.2021 10:55 21,1 C 18,1 C 19,7 C 24,2 C 24,2 C 3,1 C 70 % 77 % 1006,6 hPa 0,0 l/m 0,2 km/h (0 Bft) S-SW 202 0 min 15,4 C 24,2 C 0,0 km/h (0 Bft)
07.08.2021 11:00 21,3 C 18,1 C 19,9 C 24,8 C 24,8 C 3,5 C 69 % 77 % 1006,6 hPa 0,0 l/m 0,5 km/h (0 Bft) SW 225 5 min 15,4 C 24,8 C 2,9 km/h (1 Bft)
07.08.2021 11:05 21,3 C 18,1 C 19,9 C 25,1 C 25,1 C 3,8 C 66 % 74 % 1006,6 hPa 0,0 l/m 1,1 km/h (1 Bft) SW 225 5 min 14,7 C 25,1 C 3,2 km/h (1 Bft)
07.08.2021 11:10 21,4 C 18,1 C 20,0 C 25,0 C 25,0 C 3,6 C 66 % 74 % 1006,6 hPa 0,0 l/m 1,4 km/h (1 Bft) S-SO 157 5 min 14,8 C 25,0 C 2,9 km/h (1 Bft)
07.08.2021 11:15 21,5 C 18,1 C 20,2 C 25,0 C 25,0 C 3,5 C 66 % 75 % 1006,1 hPa 0,0 l/m 1,1 km/h (1 Bft) SW 225 5 min 14,9 C 25,0 C 0,0 km/h (0 Bft)
07.08.2021 11:20 21,6 C 18,2 C 20,3 C 25,1 C 25,1 C 3,5 C 65 % 74 % 1006,1 hPa 0,0 l/m 1,6 km/h (1 Bft) SO 135 5 min 14,7 C 25,1 C 2,3 km/h (1 Bft)
07.08.2021 11:25 21,8 C 18,2 C 20,4 C 25,2 C 25,2 C 3,4 C 65 % 73 % 1006,1 hPa 0,0 l/m 1,3 km/h (1 Bft) NW 315 5 min 14,9 C 25,2 C 0,0 km/h (0 Bft)
07.08.2021 11:30 21,9 C 18,2 C 20,5 C 25,2 C 25,2 C 3,3 C 64 % 72 % 1006,1 hPa 0,0 l/m 1,1 km/h (1 Bft) SO 135 5 min 14,8 C 25,2 C 3,2 km/h (1 Bft)
07.08.2021 11:35 22,0 C 18,2 C 20,7 C 25,4 C 25,4 C 3,4 C 64 % 72 % 1006,3 hPa 0,0 l/m 1,0 km/h (0 Bft) S 180 5 min 14,9 C 25,4 C 2,4 km/h (1 Bft)
07.08.2021 11:40 22,1 C 18,2 C 20,8 C 25,4 C 25,4 C 3,3 C 63 % 70 % 1006,3 hPa 0,0 l/m 1,4 km/h (1 Bft) W-SW 247 5 min 14,7 C 25,4 C 3,1 km/h (1 Bft)
07.08.2021 11:45 22,1 C 18,2 C 20,7 C 25,2 C 25,2 C 3,1 C 62 % 71 % 1006,3 hPa 0,0 l/m 1,9 km/h (1 Bft) S 180 0 min 14,5 C 25,2 C 2,6 km/h (1 Bft)
07.08.2021 11:50 22,1 C 18,2 C 20,8 C 25,2 C 25,2 C 3,1 C 62 % 71 % 1006,3 hPa 0,0 l/m 1,6 km/h (1 Bft) SO 135 0 min 14,5 C 25,2 C 2,1 km/h (1 Bft)
07.08.2021 11:55 22,2 C 18,1 C 21,1 C 25,5 C 25,5 C 3,3 C 63 % 71 % 1006,3 hPa 0,0 l/m 1,1 km/h (1 Bft) O 90 5 min 14,8 C 25,5 C 1,8 km/h (1 Bft)
07.08.2021 12:00 22,5 C 18,1 C 21,2 C 25,7 C 25,7 C 3,2 C 62 % 70 % 1006,3 hPa 0,0 l/m 0,8 km/h (0 Bft) S-SW 202 0 min 14,8 C 25,7 C 0,0 km/h (0 Bft)
07.08.2021 12:05 22,7 C 18,1 C 21,4 C 25,9 C 25,9 C 3,2 C 63 % 70 % 1006,3 hPa 0,0 l/m 1,0 km/h (0 Bft) NW 315 0 min 15,3 C 25,9 C 0,0 km/h (0 Bft)
07.08.2021 12:10 22,7 C 18,2 C 21,5 C 26,1 C 26,1 C 3,4 C 61 % 69 % 1006,3 hPa 0,0 l/m 1,4 km/h (1 Bft) SW 225 5 min 14,8 C 26,1 C 1,8 km/h (1 Bft)
07.08.2021 12:15 22,8 C 18,2 C 21,9 C 26,3 C 26,3 C 3,5 C 61 % 68 % 1006,4 hPa 0,0 l/m 1,8 km/h (1 Bft) S-SW 202 5 min 14,9 C 26,3 C 0,0 km/h (0 Bft)
07.08.2021 12:20 22,9 C 18,2 C 22,0 C 26,6 C 26,6 C 3,7 C 61 % 68 % 1006,4 hPa 0,0 l/m 1,4 km/h (1 Bft) S-SO 157 5 min 15,0 C 26,6 C 0,0 km/h (0 Bft)
07.08.2021 12:25 23,3 C 18,2 C 22,0 C 26,8 C 26,8 C 3,5 C 61 % 67 % 1006,4 hPa 0,0 l/m 1,0 km/h (0 Bft) S-SW 202 5 min 15,3 C 26,8 C 5,8 km/h (2 Bft)
07.08.2021 12:30 23,3 C 18,2 C 22,0 C 27,0 C 27,0 C 3,7 C 61 % 68 % 1006,4 hPa 0,0 l/m 1,3 km/h (1 Bft) W-SW 247 5 min 15,3 C 27,0 C 1,9 km/h (1 Bft)
07.08.2021 12:35 23,6 C 18,2 C 22,3 C 27,9 C 27,9 C 4,3 C 60 % 68 % 1006,2 hPa 0,0 l/m 1,6 km/h (1 Bft) S-SO 157 5 min 15,4 C 27,9 C 5,5 km/h (1 Bft)
07.08.2021 12:40 23,8 C 18,2 C 22,3 C 28,4 C 28,4 C 4,6 C 60 % 66 % 1006,2 hPa 0,0 l/m 1,6 km/h (1 Bft) SW 225 5 min 15,6 C 28,4 C 7,7 km/h (2 Bft)
07.08.2021 12:45 23,9 C 18,2 C 22,3 C 28,5 C 28,5 C 4,6 C 59 % 67 % 1006,2 hPa 0,0 l/m 1,6 km/h (1 Bft) SW 225 5 min 15,4 C 28,5 C 0,0 km/h (0 Bft)
07.08.2021 12:50 23,9 C 18,2 C 22,3 C 28,6 C 28,6 C 4,7 C 58 % 65 % 1006,2 hPa 0,0 l/m 1,8 km/h (1 Bft) SO 135 5 min 15,1 C 28,6 C 3,1 km/h (1 Bft)
07.08.2021 12:55 24,1 C 18,3 C 22,3 C 29,2 C 29,2 C 5,1 C 58 % 65 % 1005,9 hPa 0,0 l/m 1,9 km/h (1 Bft) SW 225 5 min 15,3 C 29,2 C 2,3 km/h (1 Bft)
07.08.2021 13:00 24,1 C 18,3 C 22,3 C 29,0 C 29,0 C 4,9 C 58 % 65 % 1005,9 hPa 0,0 l/m 1,8 km/h (1 Bft) S 180 5 min 15,3 C 29,0 C 1,6 km/h (1 Bft)
07.08.2021 13:05 24,1 C 18,3 C 22,3 C 28,2 C 28,2 C 4,1 C 58 % 66 % 1005,9 hPa 0,0 l/m 1,4 km/h (1 Bft) SO 135 5 min 15,3 C 28,2 C 2,7 km/h (1 Bft)
07.08.2021 13:10 24,3 C 18,3 C 22,3 C 28,5 C 28,5 C 4,2 C 59 % 67 % 1005,9 hPa 0,0 l/m 1,3 km/h (1 Bft) S-SW 202 5 min 15,8 C 28,5 C 1,8 km/h (1 Bft)
07.08.2021 13:15 24,4 C 18,3 C 22,4 C 28,6 C 28,6 C 4,2 C 57 % 66 % 1005,9 hPa 0,0 l/m 1,9 km/h (1 Bft) SW 225 5 min 15,3 C 28,6 C 3,5 km/h (1 Bft)
07.08.2021 13:20 24,3 C 18,3 C 22,5 C 28,4 C 28,4 C 4,1 C 57 % 65 % 1005,9 hPa 0,0 l/m 2,4 km/h (1 Bft) S-SW 202 5 min 15,2 C 28,4 C 3,9 km/h (1 Bft)
07.08.2021 13:25 24,5 C 18,3 C 23,0 C 29,7 C 29,7 C 5,2 C 57 % 65 % 1005,9 hPa 0,0 l/m 2,4 km/h (1 Bft) S 180 5 min 15,4 C 29,7 C 1,9 km/h (1 Bft)
07.08.2021 13:30 24,8 C 18,3 C 23,2 C 30,5 C 30,5 C 5,7 C 57 % 64 % 1005,9 hPa 0,0 l/m 1,4 km/h (1 Bft) O-NO 67 5 min 15,7 C 30,5 C 0,0 km/h (0 Bft)
07.08.2021 13:35 25,5 C 18,3 C 23,5 C 32,0 C 32,0 C 6,5 C 56 % 63 % 1005,6 hPa 0,0 l/m 1,1 km/h (1 Bft) SW 225 5 min 16,1 C 32,0 C 3,4 km/h (1 Bft)
07.08.2021 13:40 25,9 C 18,3 C 23,6 C 32,3 C 32,3 C 6,4 C 55 % 62 % 1005,6 hPa 0,0 l/m 1,1 km/h (1 Bft) S 180 5 min 16,2 C 32,3 C 2,4 km/h (1 Bft)
07.08.2021 13:45 26,3 C 18,3 C 23,7 C 32,8 C 32,8 C 6,5 C 54 % 64 % 1005,6 hPa 0,0 l/m 1,1 km/h (1 Bft) N 360 5 min 16,2 C 32,8 C 3,2 km/h (1 Bft)
07.08.2021 13:50 26,6 C 18,3 C 23,6 C 32,6 C 32,6 C 6,0 C 52 % 63 % 1005,6 hPa 0,0 l/m 1,6 km/h (1 Bft) W 270 5 min 15,9 C 32,6 C 4,0 km/h (1 Bft)
07.08.2021 13:55 26,2 C 18,3 C 23,3 C 30,9 C 30,9 C 4,7 C 52 % 64 % 1005,4 hPa 0,0 l/m 1,3 km/h (1 Bft) SW 225 5 min 15,6 C 30,9 C 1,6 km/h (1 Bft)
07.08.2021 14:00 26,0 C 18,4 C 23,1 C 30,0 C 30,0 C 4,0 C 51 % 64 % 1005,4 hPa 0,0 l/m 0,6 km/h (0 Bft) W 270 5 min 15,1 C 30,0 C 0,0 km/h (0 Bft)
07.08.2021 14:05 25,9 C 18,4 C 23,3 C 29,3 C 29,3 C 3,4 C 52 % 63 % 1005,4 hPa 0,0 l/m 0,5 km/h (0 Bft) SW 225 5 min 15,3 C 29,3 C 2,6 km/h (1 Bft)
07.08.2021 14:10 25,7 C 18,4 C 23,3 C 29,1 C 29,1 C 3,4 C 50 % 61 % 1005,4 hPa 0,0 l/m 1,1 km/h (1 Bft) SW 225 5 min 14,5 C 29,1 C 2,3 km/h (1 Bft)
07.08.2021 14:15 25,5 C 18,5 C 23,4 C 29,5 C 29,5 C 4,0 C 52 % 63 % 1005,5 hPa 0,0 l/m 1,4 km/h (1 Bft) W 270 5 min 14,9 C 29,5 C 2,3 km/h (1 Bft)
07.08.2021 14:20 25,6 C 18,4 C 23,7 C 30,5 C 30,5 C 4,9 C 52 % 62 % 1005,5 hPa 0,0 l/m 1,1 km/h (1 Bft) S-SW 202 5 min 15,0 C 30,5 C 0,0 km/h (0 Bft)
07.08.2021 14:25 25,6 C 18,4 C 23,5 C 29,8 C 29,8 C 4,2 C 51 % 59 % 1005,5 hPa 0,0 l/m 1,4 km/h (1 Bft) S-SO 157 5 min 14,7 C 29,8 C 1,6 km/h (1 Bft)
07.08.2021 14:30 25,8 C 18,4 C 23,5 C 30,0 C 30,0 C 4,2 C 51 % 61 % 1005,5 hPa 0,0 l/m 1,3 km/h (1 Bft) SW 225 5 min 14,9 C 30,0 C 0,0 km/h (0 Bft)
07.08.2021 14:35 26,0 C 18,4 C 23,7 C 30,4 C 30,4 C 4,4 C 51 % 60 % 1005,4 hPa 0,0 l/m 1,1 km/h (1 Bft) S-SW 202 5 min 15,1 C 30,4 C 0,0 km/h (0 Bft)
07.08.2021 14:40 26,3 C 18,4 C 23,9 C 30,9 C 30,9 C 4,6 C 51 % 62 % 1005,4 hPa 0,0 l/m 1,3 km/h (1 Bft) SW 225 5 min 15,3 C 30,9 C 0,0 km/h (0 Bft)
07.08.2021 14:45 26,3 C 18,5 C 23,7 C 30,7 C 30,7 C 4,4 C 51 % 62 % 1005,4 hPa 0,0 l/m 1,0 km/h (0 Bft) O-NO 67 5 min 15,3 C 30,7 C 0,0 km/h (0 Bft)
07.08.2021 14:50 26,5 C 18,5 C 23,7 C 30,4 C 30,4 C 3,9 C 52 % 62 % 1005,4 hPa 0,0 l/m 0,6 km/h (0 Bft) SW 225 5 min 15,8 C 30,4 C 0,0 km/h (0 Bft)
07.08.2021 14:55 26,4 C 18,5 C 23,7 C 30,4 C 30,4 C 4,0 C 51 % 61 % 1005,2 hPa 0,0 l/m 0,2 km/h (0 Bft) SW 225 5 min 15,4 C 30,4 C 1,6 km/h (1 Bft)
07.08.2021 15:00 26,4 C 18,5 C 23,9 C 30,4 C 30,4 C 4,0 C 51 % 61 % 1005,2 hPa 0,0 l/m 0,3 km/h (0 Bft) S 180 5 min 15,4 C 30,4 C 0,0 km/h (0 Bft)
07.08.2021 15:05 26,4 C 18,5 C 23,9 C 30,2 C 30,2 C 3,8 C 52 % 61 % 1005,2 hPa 0,0 l/m 0,3 km/h (0 Bft) O-NO 67 5 min 15,7 C 30,2 C 0,0 km/h (0 Bft)
07.08.2021 15:10 26,3 C 18,5 C 23,9 C 30,2 C 30,2 C 3,9 C 51 % 61 % 1005,2 hPa 0,0 l/m 0,2 km/h (0 Bft) W-SW 247 5 min 15,3 C 30,2 C 2,1 km/h (1 Bft)
07.08.2021 15:15 26,3 C 18,6 C 23,8 C 30,4 C 30,4 C 4,1 C 51 % 61 % 1005,1 hPa 0,0 l/m 0,3 km/h (0 Bft) SO 135 5 min 15,3 C 30,4 C 2,6 km/h (1 Bft)
07.08.2021 15:20 26,3 C 18,6 C 24,0 C 30,8 C 30,8 C 4,5 C 51 % 61 % 1005,1 hPa 0,0 l/m 0,8 km/h (0 Bft) S 180 5 min 15,3 C 30,8 C 2,7 km/h (1 Bft)
07.08.2021 15:25 26,1 C 18,6 C 23,7 C 30,0 C 30,0 C 3,9 C 51 % 60 % 1005,1 hPa 0,0 l/m 0,8 km/h (0 Bft) O-SO 112 5 min 15,2 C 30,0 C 0,0 km/h (0 Bft)
07.08.2021 15:30 26,1 C 18,6 C 23,6 C 29,4 C 29,4 C 3,3 C 51 % 62 % 1005,1 hPa 0,0 l/m 0,5 km/h (0 Bft) W-SW 247 5 min 15,2 C 29,4 C 0,0 km/h (0 Bft)
07.08.2021 15:35 25,9 C 18,6 C 23,3 C 28,5 C 28,5 C 2,6 C 51 % 62 % 1005,2 hPa 0,0 l/m 0,2 km/h (0 Bft) O-SO 112 0 min 15,0 C 28,5 C 0,0 km/h (0 Bft)
07.08.2021 15:40 25,9 C 18,6 C 23,2 C 28,0 C 28,0 C 2,1 C 52 % 62 % 1005,2 hPa 0,0 l/m 0,2 km/h (0 Bft) O-NO 67 0 min 15,3 C 28,0 C 0,0 km/h (0 Bft)
07.08.2021 15:45 25,6 C 18,6 C 23,1 C 27,3 C 27,3 C 1,7 C 51 % 62 % 1005,2 hPa 0,0 l/m 0,0 km/h (0 Bft) S-SO 157 0 min 14,7 C 27,3 C 4,5 km/h (1 Bft)
07.08.2021 15:50 25,6 C 18,7 C 22,9 C 26,9 C 26,9 C 1,3 C 51 % 61 % 1005,2 hPa 0,0 l/m 0,3 km/h (0 Bft) S-SO 157 0 min 14,7 C 26,9 C 0,0 km/h (0 Bft)
07.08.2021 15:55 25,5 C 18,7 C 22,8 C 26,4 C 26,4 C 0,9 C 52 % 62 % 1005,1 hPa 0,0 l/m 0,3 km/h (0 Bft) W-SW 247 0 min 14,9 C 26,4 C 0,0 km/h (0 Bft)
07.08.2021 16:00 25,3 C 18,7 C 22,7 C 26,2 C 26,2 C 0,9 C 52 % 62 % 1005,1 hPa 0,0 l/m 0,2 km/h (0 Bft) O-SO 112 0 min 14,7 C 26,2 C 0,0 km/h (0 Bft)
07.08.2021 16:05 25,2 C 18,7 C 22,7 C 26,1 C 26,1 C 0,9 C 52 % 64 % 1005,1 hPa 0,0 l/m 0,2 km/h (0 Bft) SO 135 0 min 14,6 C 26,1 C 2,6 km/h (1 Bft)
07.08.2021 16:10 25,3 C 18,7 C 22,7 C 26,3 C 26,3 C 1,0 C 52 % 63 % 1005,1 hPa 0,0 l/m 0,3 km/h (0 Bft) SO 135 0 min 14,7 C 26,3 C 1,6 km/h (1 Bft)
07.08.2021 16:15 25,2 C 18,7 C 22,7 C 26,5 C 26,5 C 1,3 C 52 % 64 % 1005,0 hPa 0,0 l/m 0,2 km/h (0 Bft) O-SO 112 0 min 14,6 C 26,5 C 0,0 km/h (0 Bft)
07.08.2021 16:20 25,2 C 18,8 C 22,6 C 26,2 C 26,2 C 1,0 C 54 % 64 % 1005,0 hPa 0,0 l/m 0,0 km/h (0 Bft) O-SO 112 0 min 15,2 C 26,2 C 0,0 km/h (0 Bft)
07.08.2021 16:25 25,1 C 18,9 C 22,4 C 25,6 C 25,6 C 0,5 C 55 % 64 % 1005,0 hPa 0,0 l/m 0,0 km/h (0 Bft) S-SW 202 0 min 15,4 C 25,6 C 0,0 km/h (0 Bft)
07.08.2021 16:30 25,0 C 18,9 C 22,3 C 25,4 C 25,4 C 0,4 C 55 % 65 % 1005,0 hPa 0,0 l/m 0,0 km/h (0 Bft) S-SW 202 0 min 15,3 C 25,4 C 0,0 km/h (0 Bft)
07.08.2021 16:35 24,8 C 18,9 C 22,1 C 25,0 C 25,0 C 0,2 C 56 % 66 % 1004,6 hPa 0,0 l/m 0,0 km/h (0 Bft) S 180 0 min 15,4 C 25,0 C 0,0 km/h (0 Bft)
07.08.2021 16:40 24,7 C 18,9 C 22,1 C 24,9 C 24,9 C 0,2 C 57 % 67 % 1004,6 hPa 0,0 l/m 0,0 km/h (0 Bft) S-SO 157 0 min 15,6 C 24,9 C 0,0 km/h (0 Bft)
07.08.2021 16:45 24,4 C 18,9 C 22,0 C 24,6 C 24,6 C 0,2 C 59 % 69 % 1004,6 hPa 0,0 l/m 0,0 km/h (0 Bft) S-SO 157 0 min 15,9 C 24,6 C 0,0 km/h (0 Bft)
07.08.2021 16:50 24,4 C 18,9 C 21,9 C 24,5 C 24,5 C 0,1 C 59 % 68 % 1004,6 hPa 0,0 l/m 0,0 km/h (0 Bft) S-SO 157 0 min 15,9 C 24,5 C 0,0 km/h (0 Bft)
07.08.2021 16:55 24,3 C 18,9 C 21,8 C 24,3 C 24,3 C 0,0 C 61 % 70 % 1004,6 hPa 0,0 l/m 0,0 km/h (0 Bft) S-SO 157 0 min 16,3 C 24,3 C 0,0 km/h (0 Bft)
07.08.2021 17:00 24,1 C 18,9 C 21,7 C 24,1 C 24,1 C 0,0 C 60 % 68 % 1004,6 hPa 0,0 l/m 0,0 km/h (0 Bft) S-SO 157 0 min 15,8 C 24,1 C 0,0 km/h (0 Bft)
07.08.2021 17:05 23,8 C 19,0 C 21,6 C 23,8 C 23,8 C 0,0 C 61 % 69 % 1004,6 hPa 0,0 l/m 0,0 km/h (0 Bft) S-SO 157 0 min 15,8 C 23,8 C 0,0 km/h (0 Bft)
07.08.2021 17:10 23,7 C 19,0 C 21,5 C 23,6 C 23,4 C 0,0 C 61 % 71 % 1004,6 hPa 0,0 l/m 0,0 km/h (0 Bft) S-SO 157 0 min 15,7 C 23,4 C 0,0 km/h (0 Bft)
07.08.2021 17:15 23,5 C 19,0 C 21,3 C 23,4 C 23,1 C 0,0 C 61 % 71 % 1004,4 hPa 0,0 l/m 0,0 km/h (0 Bft) S-SO 157 0 min 15,5 C 23,1 C 0,0 km/h (0 Bft)
07.08.2021 17:20 23,3 C 19,0 C 21,3 C 23,2 C 22,9 C 0,0 C 62 % 72 % 1004,4 hPa 0,0 l/m 0,0 km/h (0 Bft) S-SO 157 0 min 15,6 C 22,9 C 0,0 km/h (0 Bft)
07.08.2021 17:25 23,1 C 19,0 C 21,1 C 22,9 C 22,6 C 0,0 C 61 % 72 % 1004,4 hPa 0,0 l/m 0,0 km/h (0 Bft) S-SO 157 0 min 15,2 C 22,6 C 0,0 km/h (0 Bft)
07.08.2021 17:30 23,1 C 19,0 C 21,0 C 22,9 C 22,4 C 0,0 C 61 % 73 % 1004,4 hPa 0,0 l/m 0,0 km/h (0 Bft) S-SO 157 0 min 15,2 C 22,4 C 0,0 km/h (0 Bft)
07.08.2021 17:35 22,9 C 19,1 C 20,7 C 22,3 C 21,0 C 0,0 C 65 % 77 % 1004,6 hPa 0,0 l/m 0,0 km/h (0 Bft) S-SO 157 0 min 16,0 C 21,0 C 0,0 km/h (0 Bft)
07.08.2021 17:40 22,7 C 19,1 C 20,1 C 21,8 C 19,9 C 0,0 C 67 % 78 % 1004,6 hPa 0,0 l/m 0,0 km/h (0 Bft) S-SO 157 0 min 16,2 C 19,9 C 0,0 km/h (0 Bft)
07.08.2021 17:45 22,3 C 19,2 C 19,7 C 21,3 C 19,2 C 0,0 C 69 % 80 % 1004,6 hPa 0,0 l/m 0,0 km/h (0 Bft) S-SO 157 0 min 16,3 C 19,2 C 0,0 km/h (0 Bft)
07.08.2021 17:50 22,2 C 19,4 C 19,6 C 21,2 C 19,1 C 0,0 C 70 % 81 % 1004,6 hPa 0,0 l/m 0,0 km/h (0 Bft) S-SO 157 0 min 16,5 C 19,1 C 0,0 km/h (0 Bft)
07.08.2021 17:55 21,7 C 19,4 C 19,6 C 20,8 C 19,0 C 0,0 C 72 % 83 % 1004,2 hPa 0,0 l/m 0,2 km/h (0 Bft) SO 135 0 min 16,4 C 19,0 C 1,6 km/h (1 Bft)
07.08.2021 18:00 21,3 C 19,5 C 19,5 C 20,5 C 19,0 C 0,0 C 74 % 84 % 1004,2 hPa 0,0 l/m 0,2 km/h (0 Bft) SO 135 0 min 16,5 C 19,0 C 0,0 km/h (0 Bft)
07.08.2021 18:05 20,9 C 19,5 C 19,3 C 20,2 C 18,8 C 0,0 C 76 % 85 % 1004,2 hPa 0,0 l/m 0,5 km/h (0 Bft) O-NO 67 0 min 16,5 C 18,8 C 0,0 km/h (0 Bft)
07.08.2021 18:10 20,5 C 19,5 C 19,1 C 19,9 C 18,6 C 0,0 C 77 % 85 % 1004,2 hPa 0,0 l/m 0,8 km/h (0 Bft) O-NO 67 0 min 16,3 C 18,6 C 3,4 km/h (1 Bft)
07.08.2021 18:15 20,3 C 19,6 C 18,9 C 19,6 C 18,3 C 0,0 C 78 % 86 % 1004,4 hPa 0,0 l/m 0,5 km/h (0 Bft) NO 45 0 min 16,3 C 18,3 C 0,0 km/h (0 Bft)
07.08.2021 18:20 20,1 C 19,6 C 18,7 C 19,5 C 18,3 C 0,0 C 79 % 86 % 1004,4 hPa 0,0 l/m 0,3 km/h (0 Bft) NO 45 0 min 16,3 C 18,3 C 0,0 km/h (0 Bft)
07.08.2021 18:25 20,1 C 19,7 C 18,7 C 19,5 C 18,3 C 0,0 C 80 % 88 % 1004,4 hPa 0,7 l/m 0,0 km/h (0 Bft) O-NO 67 0 min 16,5 C 18,3 C 0,0 km/h (0 Bft)
07.08.2021 18:30 19,9 C 19,6 C 18,6 C 19,4 C 18,3 C 0,0 C 81 % 88 % 1004,4 hPa 0,0 l/m 0,0 km/h (0 Bft) O-NO 67 0 min 16,5 C 18,3 C 0,0 km/h (0 Bft)
07.08.2021 18:35 19,9 C 19,6 C 18,3 C 19,3 C 18,0 C 0,0 C 81 % 88 % 1004,9 hPa 0,0 l/m 0,0 km/h (0 Bft) SO 135 0 min 16,5 C 18,0 C 0,0 km/h (0 Bft)
07.08.2021 18:40 19,7 C 19,6 C 18,2 C 19,1 C 17,9 C 0,0 C 81 % 89 % 1004,9 hPa 0,0 l/m 0,3 km/h (0 Bft) W-SW 247 0 min 16,3 C 17,9 C 0,0 km/h (0 Bft)
07.08.2021 18:45 19,5 C 19,6 C 17,9 C 18,9 C 17,7 C 0,0 C 81 % 90 % 1004,9 hPa 0,7 l/m 0,5 km/h (0 Bft) W 270 0 min 16,1 C 17,7 C 0,0 km/h (0 Bft)
07.08.2021 18:50 19,2 C 19,6 C 17,8 C 18,7 C 17,6 C 0,0 C 82 % 90 % 1004,9 hPa 0,7 l/m 0,2 km/h (0 Bft) W-SW 247 0 min 16,0 C 17,6 C 0,0 km/h (0 Bft)
07.08.2021 18:55 19,1 C 19,5 C 17,6 C 18,6 C 17,5 C 0,0 C 83 % 91 % 1005,3 hPa 0,7 l/m 0,6 km/h (0 Bft) W-SW 247 0 min 16,1 C 17,5 C 7,7 km/h (2 Bft)
07.08.2021 19:00 18,8 C 19,5 C 17,5 C 18,3 C 17,4 C 0,0 C 83 % 92 % 1005,3 hPa 0,0 l/m 1,4 km/h (1 Bft) S-SO 157 0 min 15,8 C 17,4 C 8,5 km/h (2 Bft)
07.08.2021 19:05 18,7 C 19,6 C 17,4 C 18,3 C 17,4 C 0,0 C 84 % 92 % 1005,3 hPa 0,0 l/m 2,4 km/h (1 Bft) W-SW 247 0 min 15,9 C 17,4 C 0,0 km/h (0 Bft)
07.08.2021 19:10 18,5 C 19,6 C 17,3 C 18,1 C 17,2 C 0,0 C 84 % 92 % 1005,3 hPa 0,7 l/m 1,9 km/h (1 Bft) S 180 0 min 15,7 C 17,2 C 8,5 km/h (2 Bft)
07.08.2021 19:15 18,4 C 19,6 C 17,1 C 18,0 C 17,1 C 0,0 C 84 % 92 % 1005,2 hPa 0,0 l/m 1,3 km/h (1 Bft) S-SW 202 0 min 15,6 C 17,1 C 0,0 km/h (0 Bft)
07.08.2021 19:20 18,3 C 19,6 C 17,1 C 17,9 C 17,0 C 0,0 C 84 % 92 % 1005,2 hPa 0,0 l/m 1,1 km/h (1 Bft) S-SO 157 0 min 15,5 C 17,0 C 0,0 km/h (0 Bft)
07.08.2021 19:25 18,1 C 19,6 C 17,1 C 17,7 C 16,9 C 0,0 C 85 % 92 % 1005,2 hPa 0,7 l/m 0,8 km/h (0 Bft) S 180 0 min 15,5 C 16,9 C 1,6 km/h (1 Bft)
07.08.2021 19:30 18,0 C 19,6 C 16,9 C 17,6 C 16,9 C 0,0 C 85 % 92 % 1005,2 hPa 0,0 l/m 0,5 km/h (0 Bft) SO 135 0 min 15,4 C 16,9 C 2,1 km/h (1 Bft)
07.08.2021 19:35 18,0 C 19,6 C 16,9 C 17,6 C 16,9 C 0,0 C 85 % 93 % 1005,0 hPa 0,7 l/m 0,2 km/h (0 Bft) SO 135 0 min 15,4 C 16,9 C 0,0 km/h (0 Bft)
07.08.2021 19:40 17,8 C 19,6 C 16,8 C 17,5 C 16,9 C 0,0 C 86 % 93 % 1005,0 hPa 0,0 l/m 0,2 km/h (0 Bft) S-SO 157 0 min 15,4 C 16,9 C 5,3 km/h (1 Bft)
07.08.2021 19:45 17,7 C 19,6 C 16,7 C 17,4 C 16,8 C 0,0 C 86 % 93 % 1005,0 hPa 0,0 l/m 0,3 km/h (0 Bft) S 180 0 min 15,3 C 16,8 C 0,0 km/h (0 Bft)
07.08.2021 19:50 17,6 C 19,6 C 16,7 C 17,3 C 16,7 C 0,0 C 86 % 93 % 1005,0 hPa 0,0 l/m 0,5 km/h (0 Bft) W-SW 247 0 min 15,2 C 16,7 C 0,0 km/h (0 Bft)
07.08.2021 19:55 17,5 C 19,6 C 16,6 C 17,2 C 16,6 C 0,0 C 86 % 93 % 1005,1 hPa 0,7 l/m 0,2 km/h (0 Bft) SO 135 0 min 15,1 C 16,6 C 0,0 km/h (0 Bft)
07.08.2021 20:00 17,5 C 19,6 C 16,7 C 17,2 C 16,5 C 0,0 C 86 % 93 % 1005,1 hPa 0,0 l/m 0,0 km/h (0 Bft) SO 135 0 min 15,1 C 16,5 C 0,0 km/h (0 Bft)
07.08.2021 20:05 17,3 C 19,5 C 16,5 C 17,0 C 16,5 C 0,0 C 86 % 93 % 1005,1 hPa 0,0 l/m 0,0 km/h (0 Bft) SO 135 0 min 14,9 C 16,5 C 0,0 km/h (0 Bft)
07.08.2021 20:10 17,2 C 19,5 C 16,5 C 16,9 C 16,4 C 0,0 C 86 % 93 % 1005,1 hPa 0,0 l/m 0,0 km/h (0 Bft) SO 135 0 min 14,8 C 16,4 C 0,0 km/h (0 Bft)
07.08.2021 20:15 17,2 C 19,5 C 16,5 C 16,9 C 16,4 C 0,0 C 86 % 93 % 1004,8 hPa 0,0 l/m 0,0 km/h (0 Bft) O 90 0 min 14,8 C 16,4 C 0,0 km/h (0 Bft)
07.08.2021 20:20 17,1 C 19,5 C 16,5 C 16,9 C 16,4 C 0,0 C 86 % 93 % 1004,8 hPa 0,0 l/m 0,5 km/h (0 Bft) NO 45 0 min 14,7 C 16,4 C 2,4 km/h (1 Bft)
07.08.2021 20:29 16,9 C 19,5 C 16,3 C 16,7 C 16,3 C 0,0 C 86 % 94 % 1004,8 hPa 0,0 l/m 1,0 km/h (0 Bft) O-NO 67 0 min 14,5 C 16,3 C 3,2 km/h (1 Bft)
07.08.2021 20:35 16,8 C 19,5 C 16,3 C 16,6 C 16,3 C 0,0 C 87 % 94 % 1004,8 hPa 0,0 l/m 2,4 km/h (1 Bft) NO 45 0 min 14,6 C 16,3 C 9,0 km/h (2 Bft)
07.08.2021 20:40 16,7 C 19,5 C 16,3 C 16,5 C 16,2 C 0,0 C 87 % 94 % 1002,8 hPa 0,0 l/m 3,2 km/h (1 Bft) S-SW 202 0 min 14,5 C 16,2 C 12,4 km/h (3 Bft)
07.08.2021 20:45 16,6 C 19,5 C 16,3 C 16,5 C 16,2 C 0,0 C 87 % 94 % 1002,8 hPa 0,0 l/m 2,3 km/h (1 Bft) S-SW 202 0 min 14,4 C 16,2 C 5,8 km/h (2 Bft)
07.08.2021 20:50 16,6 C 19,5 C 16,3 C 16,4 C 16,1 C 0,0 C 87 % 94 % 1002,8 hPa 0,0 l/m 0,5 km/h (0 Bft) SW 225 0 min 14,4 C 16,1 C 0,0 km/h (0 Bft)
07.08.2021 20:55 16,5 C 19,5 C 16,2 C 16,4 C 16,1 C 0,0 C 87 % 94 % 1002,8 hPa 0,0 l/m 0,3 km/h (0 Bft) S-SO 157 0 min 14,3 C 16,1 C 0,0 km/h (0 Bft)
07.08.2021 21:00 16,4 C 19,5 C 16,2 C 16,3 C 16,1 C 0,0 C 87 % 94 % 1004,7 hPa 0,0 l/m 0,0 km/h (0 Bft) S 180 0 min 14,2 C 16,1 C 0,0 km/h (0 Bft)
07.08.2021 21:05 16,4 C 19,5 C 16,2 C 16,3 C 16,0 C 0,0 C 87 % 94 % 1004,7 hPa 0,0 l/m 0,0 km/h (0 Bft) S 180 0 min 14,2 C 16,0 C 0,0 km/h (0 Bft)
07.08.2021 21:10 16,3 C 19,5 C 16,2 C 16,2 C 16,0 C 0,0 C 87 % 94 % 1004,7 hPa 0,0 l/m 0,0 km/h (0 Bft) SO 135 0 min 14,1 C 16,0 C 0,0 km/h (0 Bft)
07.08.2021 21:15 16,3 C 19,5 C 16,1 C 16,2 C 16,0 C 0,0 C 87 % 94 % 1004,7 hPa 0,0 l/m 0,0 km/h (0 Bft) S 180 0 min 14,1 C 16,0 C 0,0 km/h (0 Bft)
07.08.2021 21:20 16,3 C 19,5 C 16,1 C 16,2 C 16,0 C 0,0 C 87 % 94 % 1005,2 hPa 0,0 l/m 0,0 km/h (0 Bft) O-NO 67 0 min 14,1 C 16,0 C 0,0 km/h (0 Bft)
07.08.2021 21:25 16,1 C 19,5 C 16,1 C 16,1 C 16,0 C 0,0 C 87 % 94 % 1005,2 hPa 0,0 l/m 0,0 km/h (0 Bft) O-NO 67 0 min 13,9 C 16,0 C 0,0 km/h (0 Bft)
07.08.2021 21:30 16,1 C 19,5 C 16,1 C 16,1 C 16,0 C 0,0 C 87 % 94 % 1005,2 hPa 0,0 l/m 0,0 km/h (0 Bft) O-NO 67 0 min 13,9 C 16,0 C 0,0 km/h (0 Bft)
07.08.2021 21:35 16,0 C 19,5 C 16,1 C 16,0 C 16,0 C 0,0 C 87 % 94 % 1005,2 hPa 0,0 l/m 0,0 km/h (0 Bft) SW 225 0 min 13,8 C 16,0 C 0,0 km/h (0 Bft)
07.08.2021 21:40 16,0 C 19,5 C 16,0 C 16,0 C 16,0 C 0,0 C 87 % 93 % 1005,0 hPa 0,0 l/m 0,0 km/h (0 Bft) SW 225 0 min 13,8 C 16,0 C 0,0 km/h (0 Bft)
07.08.2021 21:45 16,0 C 19,5 C 16,1 C 16,0 C 16,0 C 0,0 C 87 % 94 % 1005,0 hPa 0,0 l/m 0,0 km/h (0 Bft) S-SO 157 0 min 13,8 C 16,0 C 1,8 km/h (1 Bft)
07.08.2021 21:50 15,9 C 19,5 C 16,0 C 16,0 C 16,0 C 0,1 C 87 % 93 % 1005,0 hPa 0,0 l/m 0,2 km/h (0 Bft) S-SO 157 0 min 13,7 C 16,0 C 0,0 km/h (0 Bft)
07.08.2021 21:55 15,9 C 19,5 C 16,0 C 16,0 C 16,0 C 0,1 C 87 % 93 % 1005,0 hPa 0,0 l/m 0,2 km/h (0 Bft) O-SO 112 0 min 13,7 C 16,0 C 0,0 km/h (0 Bft)
07.08.2021 22:00 15,9 C 19,5 C 16,0 C 16,0 C 16,0 C 0,1 C 87 % 93 % 1005,1 hPa 0,0 l/m 0,0 km/h (0 Bft) O-SO 112 0 min 13,7 C 16,0 C 0,0 km/h (0 Bft)
07.08.2021 22:05 15,8 C 19,5 C 15,9 C 15,9 C 15,9 C 0,1 C 87 % 93 % 1005,1 hPa 0,0 l/m 0,0 km/h (0 Bft) O-NO 67 0 min 13,6 C 15,9 C 0,0 km/h (0 Bft)
07.08.2021 22:11 15,7 C 19,5 C 16,0 C 15,8 C 15,8 C 0,1 C 87 % 93 % 1005,1 hPa 0,0 l/m 0,0 km/h (0 Bft) N 0 0 min 13,5 C 15,8 C 0,0 km/h (0 Bft)
07.08.2021 22:27 15,5 C 19,5 C 15,9 C 15,8 C 15,8 C 0,3 C 87 % 93 % 1004,9 hPa 0,0 l/m 0,0 km/h (0 Bft) S 180 0 min 13,3 C 15,8 C 0,0 km/h (0 Bft)
07.08.2021 22:40 15,5 C 19,6 C 15,8 C 15,8 C 15,8 C 0,3 C 87 % 93 % 1005,3 hPa 0,0 l/m 0,0 km/h (0 Bft) S-SO 157 0 min 13,3 C 15,8 C 0,0 km/h (0 Bft)
07.08.2021 22:45 15,5 C 19,6 C 15,8 C 15,8 C 15,8 C 0,3 C 87 % 93 % 1005,3 hPa 0,0 l/m 0,0 km/h (0 Bft) S-SO 157 0 min 13,3 C 15,8 C 0,0 km/h (0 Bft)
07.08.2021 22:50 15,5 C 19,6 C 15,8 C 15,7 C 15,7 C 0,2 C 87 % 93 % 1005,3 hPa 0,0 l/m 0,0 km/h (0 Bft) NW 315 0 min 13,3 C 15,7 C 0,0 km/h (0 Bft)
07.08.2021 22:55 15,4 C 19,6 C 15,8 C 15,7 C 15,7 C 0,3 C 87 % 93 % 1005,3 hPa 0,0 l/m 0,0 km/h (0 Bft) S-SO 157 0 min 13,2 C 15,7 C 0,0 km/h (0 Bft)
07.08.2021 23:00 15,3 C 19,6 C 15,7 C 15,7 C 15,7 C 0,4 C 87 % 93 % 1005,6 hPa 0,0 l/m 0,0 km/h (0 Bft) N-NW 337 0 min 13,1 C 15,7 C 0,0 km/h (0 Bft)
07.08.2021 23:05 15,3 C 19,6 C 15,8 C 15,7 C 15,7 C 0,4 C 87 % 93 % 1005,6 hPa 0,0 l/m 0,0 km/h (0 Bft) S-SW 202 0 min 13,1 C 15,7 C 0,0 km/h (0 Bft)
07.08.2021 23:10 15,3 C 19,6 C 15,8 C 15,8 C 15,8 C 0,5 C 87 % 93 % 1005,6 hPa 0,0 l/m 0,0 km/h (0 Bft) SO 135 0 min 13,1 C 15,8 C 0,0 km/h (0 Bft)
07.08.2021 23:15 15,2 C 19,6 C 15,7 C 15,7 C 15,7 C 0,5 C 87 % 93 % 1005,6 hPa 0,0 l/m 0,0 km/h (0 Bft) SO 135 0 min 13,0 C 15,7 C 0,0 km/h (0 Bft)
07.08.2021 23:20 15,2 C 19,6 C 15,7 C 15,7 C 15,7 C 0,5 C 87 % 93 % 1005,1 hPa 0,0 l/m 0,0 km/h (0 Bft) SO 135 0 min 13,0 C 15,7 C 0,0 km/h (0 Bft)
07.08.2021 23:25 15,2 C 19,6 C 15,7 C 15,6 C 15,6 C 0,4 C 87 % 93 % 1005,1 hPa 0,0 l/m 0,0 km/h (0 Bft) SO 135 0 min 13,0 C 15,6 C 0,0 km/h (0 Bft)
07.08.2021 23:30 15,1 C 19,6 C 15,5 C 15,5 C 15,5 C 0,4 C 87 % 93 % 1005,1 hPa 0,0 l/m 0,0 km/h (0 Bft) SO 135 0 min 13,0 C 15,5 C 0,0 km/h (0 Bft)
07.08.2021 23:35 15,1 C 19,6 C 15,6 C 15,5 C 15,5 C 0,4 C 87 % 93 % 1005,1 hPa 0,0 l/m 0,0 km/h (0 Bft) S 180 0 min 13,0 C 15,5 C 0,0 km/h (0 Bft)
07.08.2021 23:40 15,1 C 19,6 C 15,6 C 15,6 C 15,6 C 0,5 C 87 % 93 % 1005,7 hPa 0,0 l/m 0,0 km/h (0 Bft) S-SW 202 0 min 13,0 C 15,6 C 0,0 km/h (0 Bft)
07.08.2021 23:45 15,0 C 19,6 C 15,6 C 15,5 C 15,5 C 0,5 C 87 % 93 % 1005,7 hPa 0,0 l/m 0,0 km/h (0 Bft) N-NO 22 0 min 12,9 C 15,5 C 0,0 km/h (0 Bft)
07.08.2021 23:50 14,9 C 19,6 C 15,5 C 15,5 C 15,5 C 0,6 C 87 % 93 % 1005,7 hPa 0,0 l/m 0,0 km/h (0 Bft) SW 225 0 min 12,8 C 15,5 C 0,0 km/h (0 Bft)
07.08.2021 23:55 14,9 C 19,6 C 15,5 C 15,4 C 15,4 C 0,5 C 87 % 93 % 1005,7 hPa 0,0 l/m 0,0 km/h (0 Bft) S 180 0 min 12,8 C 15,4 C 0,0 km/h (0 Bft)
_ Min-Zeit 06:10 08:55 05:30 06:00 05:20 00:00 14:10 14:25 20:40 - 00:35 - - - 06:10 05:20 00:00
Minimum _ 13,4 C 18,0 C 13,5 C 13,2 C 12,7 C 0,0 C 50 % 59 % 1002,8 hPa - 0,0 km/h (0 Bft) - - - 11,3 C 12,7 C 0,0 km/h (0 Bft)
_ Max-Zeit 13:50 18:25 15:20 13:45 13:45 07:25 05:30 20:29 10:15 18:25 20:40 - - 07:15 18:30 13:45 20:40
Maximum _ 26,6 C 19,7 C 24,0 C 32,8 C 32,8 C 8,0 C 87 % 94 % 1007,1 hPa 0,7 l/m 3,2 km/h
S-SW (1 Bft)
- - 5 min 16,5 C 32,8 C 12,4 km/h
S-SW (3 Bft)
Durchschnitt _ 18,8 C 18,8 C 17,8 C 20,1 C 19,8 C 1,5 C 76 % 82 % 1005,8 hPa #5,5 l/m 0,4 km/h (0 Bft) SW - #6:20 h 14,1 C 19,8 C 0,8 km/h (0 Bft)
2021 www.wetterstation-wechselburg.de